"datetime","# probes","# resolvers","can_ipv6","can_ipv6_prbs","can_tcp","can_tcp_prbs","can_tcp6","can_tcp6_prbs","does_ecs","does_ecs_prbs","does_flagday","does_flagday_prbs","does_rov4","does_rov4_prbs","does_rov6","does_rov6_prbs","does_qnamemin","doesnt_qnamemin","does_qnamemin_prbs","doesnt_qnamemin_prbs","does_nxdomain","doesnt_nxdomain","does_nxdomain_prbs","doesnt_nxdomain_prbs","has_ta_19036","hasnt_ta_19036","has_ta_19036_prbs","hasnt_ta_19036_prbs","has_ta_20326","hasnt_ta_20326","has_ta_20326_prbs","hasnt_ta_20326_prbs","can_rsamd5","cannot_rsamd5","broken_rsamd5","can_rsamd5_prbs","cannot_rsamd5_prbs","broken_rsamd5_prbs","can_dsa","cannot_dsa","broken_dsa","can_dsa_prbs","cannot_dsa_prbs","broken_dsa_prbs","can_rsasha1","cannot_rsasha1","broken_rsasha1","can_rsasha1_prbs","cannot_rsasha1_prbs","broken_rsasha1_prbs","can_dsansec3","cannot_dsansec3","broken_dsansec3","can_dsansec3_prbs","cannot_dsansec3_prbs","broken_dsansec3_prbs","can_rsansec3","cannot_rsansec3","broken_rsansec3","can_rsansec3_prbs","cannot_rsansec3_prbs","broken_rsansec3_prbs","can_rsasha256","cannot_rsasha256","broken_rsasha256","can_rsasha256_prbs","cannot_rsasha256_prbs","broken_rsasha256_prbs","can_rsasha512","cannot_rsasha512","broken_rsasha512","can_rsasha512_prbs","cannot_rsasha512_prbs","broken_rsasha512_prbs","can_eccgost","cannot_eccgost","broken_eccgost","can_eccgost_prbs","cannot_eccgost_prbs","broken_eccgost_prbs","can_ecdsa256","cannot_ecdsa256","broken_ecdsa256","can_ecdsa256_prbs","cannot_ecdsa256_prbs","broken_ecdsa256_prbs","can_ecdsa384","cannot_ecdsa384","broken_ecdsa384","can_ecdsa384_prbs","cannot_ecdsa384_prbs","broken_ecdsa384_prbs","can_ed25519","cannot_ed25519","broken_ed25519","can_ed25519_prbs","cannot_ed25519_prbs","broken_ed25519_prbs","can_ed448","cannot_ed448","broken_ed448","can_ed448_prbs","cannot_ed448_prbs","broken_ed448_prbs","can_gost","cannot_gost","broken_gost","can_gost_prbs","cannot_gost_prbs","broken_gost_prbs","can_sha384","cannot_sha384","broken_sha384","can_sha384_prbs","cannot_sha384_prbs","broken_sha384_prbs","is_internal","is_forwarding","is_external","is_internal_prbs","is_forwarding_prbs","is_external_prbs"
2017-06-20T23:59:59Z,201,332,274,173,329,201,257,164,129,87,0,0,0,0,0,0,2,330,1,200,6,324,3,198,0,0,0,0,0,0,0,0,15,223,89,18,148,57,41,286,0,39,177,0,132,194,0,91,128,0,40,287,0,39,177,0,130,196,0,90,129,0,131,195,0,90,128,0,131,195,0,91,128,0,0,332,0,11,201,0,128,200,0,89,131,0,127,201,0,89,132,0,0,332,0,0,201,0,0,332,0,0,201,0,89,241,1,64,156,1,129,198,0,90,129,0,156,86,90,105,68,55
2017-06-21T23:59:59Z,202,334,273,173,331,202,252,163,133,87,0,0,0,0,0,0,2,331,1,201,6,326,3,199,0,0,0,0,0,0,0,0,17,226,87,20,150,56,43,287,0,40,178,0,136,193,0,93,128,0,44,286,0,41,177,0,135,194,0,92,129,0,134,195,0,92,130,0,135,194,0,92,129,0,0,334,0,11,202,0,129,202,0,89,134,0,130,201,0,90,133,0,0,334,0,0,202,0,0,334,0,0,202,0,89,243,1,64,158,1,128,202,0,89,135,0,155,86,92,104,68,55
2017-06-22T23:59:59Z,203,336,277,175,331,203,256,164,133,87,0,0,0,0,0,0,2,333,1,202,6,328,3,200,0,0,0,0,0,0,0,0,15,231,86,18,153,55,45,287,0,42,177,0,135,196,0,92,130,0,43,289,0,41,178,0,135,196,0,92,130,0,137,194,0,94,128,0,136,195,0,93,129,0,0,336,0,11,203,0,129,204,0,90,136,0,129,204,0,89,135,0,0,336,0,0,203,0,0,336,0,0,203,0,89,245,1,63,160,1,128,204,0,89,136,0,156,84,93,107,67,55
2017-06-23T23:59:59Z,201,333,274,173,327,201,250,160,135,89,0,0,0,0,0,0,4,328,2,200,6,325,3,198,0,0,0,0,0,0,0,0,16,227,86,19,151,55,42,287,0,40,177,0,133,195,0,91,129,0,43,286,0,42,175,0,135,193,0,94,128,0,134,194,0,92,128,0,133,195,0,91,129,0,0,333,0,11,201,0,126,204,0,88,135,0,127,203,0,88,134,0,0,333,0,0,201,0,0,333,0,0,201,0,88,243,1,63,158,1,127,202,0,88,134,0,152,87,92,106,69,54
2017-06-24T23:59:59Z,199,327,270,171,323,199,251,163,127,85,0,0,0,0,0,0,0,326,0,199,6,319,3,196,0,0,0,0,0,0,0,0,15,223,85,18,148,55,41,282,0,39,176,0,131,191,0,90,127,0,43,280,0,41,174,0,128,194,0,89,129,0,129,193,0,89,128,0,130,192,0,90,127,0,0,327,0,11,199,0,123,201,0,86,133,0,124,200,0,87,132,0,0,327,0,0,199,0,0,327,0,0,199,0,88,237,1,64,155,1,122,201,0,86,134,0,151,84,89,104,66,53
2017-06-25T23:59:59Z,201,331,271,171,325,200,250,160,129,86,0,0,0,0,0,0,2,328,1,200,6,323,3,198,0,0,0,0,0,0,0,0,19,222,86,22,148,55,44,283,0,41,176,0,135,191,0,92,127,0,42,285,0,40,177,0,133,193,0,91,128,0,133,193,0,91,128,0,132,194,0,91,129,0,0,331,0,11,201,0,126,202,0,88,133,0,126,202,0,88,133,0,0,331,0,0,201,0,0,331,0,0,201,0,86,243,1,62,158,1,124,203,0,87,135,0,161,80,89,110,62,53
2017-06-26T23:59:59Z,206,342,280,175,336,205,254,163,127,85,0,0,0,0,0,0,2,339,1,205,6,336,3,204,0,0,0,0,0,0,0,0,17,235,86,20,155,55,44,294,0,41,182,0,134,203,0,92,135,0,45,293,0,42,181,0,136,201,0,93,133,0,136,201,0,94,133,0,137,200,0,94,132,0,0,342,0,11,206,0,129,210,0,89,139,0,129,210,0,89,139,0,0,342,0,0,206,0,0,342,0,0,206,0,89,251,1,63,163,1,129,209,0,90,139,0,164,83,93,110,67,54
2017-06-27T23:59:59Z,206,343,280,175,338,205,259,162,132,84,0,0,0,0,0,0,2,340,1,205,6,335,3,203,0,0,0,0,0,0,0,0,18,234,87,22,157,55,43,296,0,43,181,0,136,202,0,94,134,0,44,295,0,43,181,0,136,202,0,95,135,0,135,203,0,94,136,0,135,203,0,93,135,0,0,343,0,12,206,0,135,205,0,94,137,0,134,206,0,93,137,0,0,343,0,0,206,0,0,343,0,0,206,0,88,253,1,63,165,1,130,209,0,91,139,0,162,84,93,111,64,54
2017-06-28T23:59:59Z,206,340,282,177,335,205,263,167,138,90,0,0,0,0,0,0,4,335,2,205,3,335,2,204,0,0,0,0,0,0,0,0,18,229,89,22,153,57,43,293,0,43,181,0,137,198,0,95,133,0,42,292,2,42,181,1,136,199,0,95,134,0,135,200,0,94,134,0,137,198,0,96,133,0,0,340,0,12,206,0,132,205,0,93,137,0,133,204,0,94,136,0,0,340,0,0,206,0,0,340,0,0,206,0,91,247,1,66,163,1,131,205,0,93,138,0,156,87,94,111,67,55
2017-06-29T23:59:59Z,209,343,285,180,336,208,262,169,132,87,0,0,0,0,0,0,2,340,1,208,3,340,2,208,0,0,0,0,0,0,0,0,19,228,92,23,156,60,44,295,0,44,184,0,141,197,0,99,133,0,44,295,0,44,184,0,142,196,0,99,132,0,139,198,1,98,133,1,142,196,0,99,132,0,0,343,0,13,209,0,133,207,0,96,139,0,133,207,0,95,139,0,0,343,0,0,209,0,0,343,0,0,209,0,94,247,1,69,163,1,134,205,0,96,138,1,160,85,96,113,66,57
2017-06-30T23:59:59Z,208,340,283,179,335,207,258,166,135,88,0,0,0,0,0,0,4,335,2,207,3,335,2,206,0,0,0,0,0,0,0,0,19,227,91,23,155,59,41,295,0,42,183,0,135,200,0,96,135,0,40,296,0,41,184,0,138,197,0,98,132,0,134,199,2,96,133,2,138,197,0,98,132,0,0,340,0,12,208,0,129,208,0,93,140,0,129,208,0,93,140,0,0,340,0,0,208,0,0,340,0,0,208,0,93,245,1,68,164,1,130,206,0,94,139,1,157,85,96,111,65,57
2017-07-01T23:59:59Z,205,336,280,177,333,205,255,165,138,92,0,0,0,0,0,0,0,335,0,205,3,333,2,204,0,0,0,0,0,0,0,0,18,225,90,22,151,58,45,287,0,43,179,0,138,193,0,97,129,0,43,289,0,42,180,0,135,196,0,95,131,0,132,199,0,93,133,0,135,196,0,95,131,0,0,336,0,12,205,0,128,205,0,91,137,0,128,205,0,91,137,0,0,336,0,0,205,0,0,336,0,0,205,0,93,241,1,68,159,1,129,203,0,92,136,1,154,85,95,110,67,56
2017-07-02T23:59:59Z,208,341,283,179,336,207,256,164,135,91,0,0,0,0,0,0,2,338,1,207,3,338,2,207,0,0,0,0,0,0,0,0,18,230,90,22,154,59,44,292,1,43,181,1,137,199,0,97,133,0,44,293,0,43,182,0,137,199,0,97,133,0,137,199,0,97,133,0,137,199,0,97,133,0,0,341,0,12,208,0,132,206,0,94,138,0,132,206,0,94,138,0,0,341,0,0,208,0,1,340,0,1,208,0,92,247,1,67,163,1,131,206,0,94,138,1,159,84,95,112,66,56
2017-07-03T23:59:59Z,211,348,284,180,342,210,255,165,137,91,0,0,0,0,0,0,2,345,1,210,6,340,3,208,0,0,0,0,0,0,0,0,19,236,90,23,157,59,46,298,0,46,184,0,141,202,0,100,133,0,45,299,0,46,184,0,141,202,0,100,133,0,138,205,0,97,135,0,140,203,0,100,134,0,0,348,0,13,211,0,131,213,1,95,141,1,134,211,0,96,139,0,0,348,0,0,211,0,0,348,0,0,211,0,92,254,1,68,165,1,135,209,0,98,138,1,164,87,94,115,69,56
2017-07-04T23:59:59Z,210,347,284,179,342,209,258,165,133,89,0,0,0,0,0,0,4,342,2,209,6,341,3,208,0,0,0,0,0,0,0,0,20,235,89,24,156,58,45,298,0,44,184,0,136,206,0,96,136,0,46,297,0,45,183,0,141,201,0,99,132,0,135,207,0,95,136,0,139,203,0,98,134,0,0,347,0,12,210,0,133,211,0,94,139,0,131,213,0,93,140,0,0,347,0,0,210,0,0,347,0,0,210,0,89,256,1,65,166,1,133,210,0,95,138,1,168,84,93,118,68,55
2017-07-05T23:59:59Z,207,345,284,177,341,207,253,161,133,88,0,0,0,0,0,0,4,340,2,206,6,339,3,205,0,0,0,0,0,0,0,0,19,238,85,23,156,55,46,295,0,44,181,0,137,203,0,96,132,0,47,294,0,45,180,0,139,201,0,98,131,0,137,203,0,96,133,0,137,203,0,96,132,0,0,345,0,12,207,0,131,211,0,93,137,0,132,210,0,94,136,0,0,345,0,0,207,0,0,345,0,0,207,0,88,255,1,64,164,1,134,207,0,95,135,1,164,85,93,113,67,54
2017-07-06T23:59:59Z,207,344,283,177,340,207,254,165,134,88,0,0,0,0,0,0,2,341,1,206,6,336,3,204,0,0,0,0,0,0,0,0,20,238,83,24,155,54,47,293,0,44,181,0,135,204,0,94,133,0,48,292,0,45,180,0,136,203,0,95,133,0,135,204,0,95,133,0,137,202,0,96,132,0,0,344,0,12,207,0,128,213,0,90,139,0,128,213,0,90,139,0,0,344,0,0,207,0,0,344,0,0,207,0,85,257,1,63,165,1,130,210,0,92,137,1,171,80,90,116,63,53
2017-07-07T23:59:59Z,207,342,279,176,336,206,258,167,129,87,0,0,0,0,0,0,3,338,2,206,6,333,3,204,0,0,0,0,0,0,0,0,22,236,81,25,154,54,49,289,1,46,180,1,137,201,0,96,130,0,49,290,0,45,180,0,135,204,0,94,132,0,135,204,0,94,132,0,135,204,0,94,132,0,0,342,0,13,207,0,127,212,0,91,137,0,127,212,0,91,137,0,1,341,0,1,207,0,0,342,0,0,207,0,83,256,1,63,164,1,126,211,0,91,137,1,172,80,87,118,64,53
2017-07-08T23:59:59Z,206,344,283,176,337,204,263,166,130,85,0,0,0,0,0,0,4,339,2,205,6,338,3,204,0,0,0,0,0,0,0,0,21,238,83,24,155,54,48,294,0,45,180,0,135,206,0,93,133,0,48,294,0,44,180,0,137,204,0,95,132,0,135,206,0,93,132,0,136,205,0,94,132,0,0,344,0,12,206,0,126,215,0,89,138,0,126,215,0,89,138,0,0,344,0,0,206,0,2,342,0,1,206,0,86,255,2,65,162,2,129,211,0,91,137,1,172,79,90,119,61,54
2017-07-09T23:59:59Z,206,339,279,176,335,205,257,166,134,89,0,0,0,0,0,0,3,336,2,205,6,331,3,203,0,0,0,0,0,0,0,0,21,230,86,23,153,57,49,288,0,45,179,0,139,197,0,95,130,0,49,287,1,44,179,1,139,197,0,95,129,0,140,196,0,96,128,0,140,196,0,96,128,0,0,339,0,11,206,1,134,202,0,94,133,0,134,202,0,94,133,0,0,339,0,0,206,1,0,339,0,0,206,1,90,247,1,66,160,1,131,205,0,92,134,1,172,77,87,119,60,53
2017-07-10T23:59:59Z,209,348,285,178,344,208,263,168,133,87,0,0,0,0,0,0,3,345,2,208,6,342,3,207,0,0,0,0,0,0,0,0,22,236,88,24,155,57,50,296,0,45,182,0,145,200,0,98,131,0,50,296,0,44,182,0,144,201,0,98,132,0,144,201,0,98,132,0,144,201,0,98,132,0,0,348,0,12,209,0,135,210,0,94,137,0,135,210,0,94,137,0,0,348,0,0,209,0,0,348,0,0,209,0,91,255,1,66,164,1,132,213,0,92,139,1,172,81,93,119,62,55
2017-07-11T23:59:59Z,207,346,283,176,342,206,261,166,134,88,0,0,0,0,0,0,2,344,1,206,6,340,3,205,0,0,0,0,0,0,0,0,22,236,86,23,154,56,49,295,0,44,180,0,143,200,0,97,129,0,49,295,0,43,180,0,141,202,0,96,131,0,141,202,0,96,131,0,142,201,0,97,130,0,0,346,0,11,207,0,135,208,0,95,134,0,135,208,0,95,134,0,0,346,0,0,207,0,0,346,0,0,207,0,90,254,1,65,162,1,135,208,0,95,134,1,175,79,90,117,63,54
2017-07-12T23:59:59Z,204,339,279,174,334,203,255,162,131,87,0,0,0,0,0,0,2,337,1,203,4,333,2,201,0,0,0,0,0,0,0,0,20,235,82,21,154,55,48,289,0,43,178,0,136,200,0,93,130,0,47,290,0,41,179,0,135,201,0,93,131,0,135,201,0,93,131,0,137,199,0,94,130,0,0,339,0,11,204,1,128,208,0,90,135,0,129,207,0,91,134,0,0,339,0,0,204,0,0,339,0,0,204,0,88,249,1,65,160,1,127,209,0,90,136,1,168,83,87,112,66,53
2017-07-13T23:59:59Z,204,338,279,174,333,203,259,164,132,87,0,0,0,0,0,0,3,335,2,203,4,330,2,200,0,0,0,0,0,0,0,0,21,230,85,22,153,56,50,286,0,45,177,0,142,193,0,96,127,0,51,285,0,45,176,0,138,197,0,94,129,0,137,198,0,93,130,0,138,197,0,94,129,0,0,338,0,11,204,0,131,204,0,91,134,0,133,202,0,92,133,0,0,338,0,0,204,0,0,338,0,0,204,0,87,249,1,64,160,1,133,202,0,93,132,0,164,84,88,110,66,53
2017-07-14T23:59:59Z,204,335,276,173,329,202,256,163,128,85,0,0,0,0,0,0,4,331,2,203,4,329,3,201,0,0,0,0,0,0,0,0,21,230,82,22,154,55,48,285,0,44,178,1,138,194,0,95,128,1,48,285,0,43,178,1,136,196,0,94,129,1,136,196,0,94,129,1,137,195,0,95,128,1,0,335,0,11,204,1,128,204,0,91,134,1,128,204,0,91,134,1,0,335,0,0,204,1,0,335,0,0,204,1,87,246,1,64,159,2,127,205,0,90,135,0,166,81,87,111,65,53
2017-07-15T23:59:59Z,203,333,274,172,329,202,251,161,126,82,0,0,0,0,0,0,2,331,1,202,4,327,2,200,0,0,0,0,0,0,0,0,21,228,82,22,152,55,48,283,0,44,177,0,135,195,0,93,129,0,49,282,0,44,176,0,136,194,0,94,128,0,137,193,0,95,127,0,137,193,0,95,127,0,0,333,0,11,203,0,129,201,0,92,133,0,128,202,0,91,133,0,0,333,0,0,203,0,0,333,0,0,203,0,83,247,2,61,160,2,130,200,0,92,132,0,161,83,87,110,65,53
2017-07-16T23:59:59Z,202,333,274,171,329,201,254,160,128,85,0,0,0,0,0,0,2,331,1,201,4,327,2,199,0,0,0,0,0,0,0,0,21,228,82,22,152,55,48,283,0,44,176,0,139,191,0,95,126,0,51,280,0,45,174,0,138,192,0,95,126,0,138,192,0,95,126,0,138,192,0,95,126,0,0,333,0,11,202,0,132,198,0,93,130,0,132,198,0,93,130,0,0,333,0,0,202,0,0,333,0,0,202,0,87,243,2,64,157,2,129,201,0,91,132,0,165,78,88,113,61,53
2017-07-17T23:59:59Z,207,345,286,176,343,207,267,166,136,86,0,0,0,0,0,0,4,341,2,206,4,339,2,204,0,0,0,0,0,0,0,0,22,231,90,23,154,59,53,290,0,46,179,0,149,193,0,100,127,0,53,289,1,46,178,1,149,193,0,100,127,0,150,192,0,101,126,0,150,192,0,101,126,0,0,345,0,11,207,0,140,202,0,96,133,0,139,203,0,95,134,0,1,342,2,1,206,1,0,345,0,0,207,0,92,249,3,66,161,2,140,202,0,96,133,0,162,86,94,111,66,56
2017-07-18T23:59:59Z,204,338,279,173,335,204,261,163,132,85,0,0,0,0,0,0,2,336,1,203,4,334,2,202,0,0,0,0,0,0,0,0,21,226,89,22,152,58,48,288,0,44,178,0,142,193,0,96,128,0,49,287,0,44,177,0,142,193,0,96,128,0,143,192,0,97,128,0,142,193,0,96,128,0,0,338,0,11,204,0,138,197,0,95,131,0,139,196,0,96,131,0,0,338,0,0,204,0,0,338,0,0,204,0,93,243,1,66,158,1,138,197,0,96,131,0,159,83,94,108,65,56
2017-07-19T23:59:59Z,205,338,279,174,336,205,260,164,140,91,0,0,0,0,0,0,5,333,3,204,4,334,2,203,0,0,0,0,0,0,0,0,20,227,89,22,153,58,49,287,0,46,178,0,143,192,0,98,128,0,50,286,0,46,177,0,144,191,0,99,127,0,143,192,0,98,128,0,143,192,0,98,128,0,0,338,0,12,205,0,138,197,0,97,131,0,136,199,0,96,132,0,0,338,0,0,205,0,0,338,0,0,205,0,92,244,1,67,160,1,137,198,0,96,132,0,164,79,94,112,64,56
2017-07-20T23:59:59Z,202,334,279,173,331,202,263,165,135,87,0,0,0,0,0,0,4,330,2,201,1,331,1,200,0,0,0,0,0,0,0,0,22,220,90,23,148,59,50,282,0,46,174,0,144,187,0,98,124,0,49,283,0,44,175,0,142,189,0,96,126,0,142,189,0,96,126,0,142,189,0,96,126,0,0,334,0,11,202,0,135,196,0,94,131,0,134,197,0,93,131,0,0,334,0,0,202,0,0,334,0,0,202,0,91,240,2,66,156,2,137,194,0,96,129,0,161,79,94,111,62,56
2017-07-21T23:59:59Z,200,330,276,171,329,200,260,161,132,85,0,0,0,0,0,0,4,326,2,199,1,329,1,199,0,0,0,0,0,0,0,0,20,219,89,20,148,58,49,279,0,43,174,0,143,184,0,95,124,0,49,279,0,43,173,0,144,183,0,96,123,0,143,184,0,95,124,0,143,184,0,95,124,0,0,330,0,10,200,0,137,190,0,93,128,0,137,190,0,94,129,0,0,330,0,0,200,0,0,330,0,0,200,0,90,238,1,63,156,1,136,191,0,93,129,0,151,81,96,105,65,57
2017-07-22T23:59:59Z,204,337,283,175,333,202,266,165,134,85,0,0,0,0,0,0,3,334,2,203,1,333,1,201,0,0,0,0,0,0,0,0,22,218,95,23,147,62,53,282,0,46,176,0,152,182,0,101,123,0,51,284,0,45,176,0,147,187,0,98,126,0,147,187,0,98,126,0,147,187,0,98,126,0,0,337,0,11,204,1,139,195,0,96,131,0,140,194,0,96,130,0,0,337,0,1,204,0,0,337,0,0,204,0,95,240,1,68,156,1,138,196,0,95,132,0,155,82,98,108,65,58
2017-07-23T23:59:59Z,203,334,280,174,333,203,264,166,132,86,0,0,0,0,0,0,4,330,3,201,1,331,1,201,0,0,0,0,0,0,0,0,20,223,89,21,150,58,47,283,2,44,176,1,143,188,0,96,126,0,49,282,1,44,176,1,142,189,0,96,127,0,144,187,0,97,125,0,143,188,0,97,126,0,0,334,0,11,203,0,136,195,0,94,130,0,136,195,0,95,130,0,1,333,0,1,203,0,0,334,0,0,203,0,92,240,1,66,157,1,140,191,0,96,128,0,157,79,96,108,62,57
2017-07-24T23:59:59Z,206,342,285,176,339,205,265,165,132,86,0,0,0,0,0,0,3,339,2,205,4,336,2,203,0,0,0,0,0,0,0,0,20,230,90,21,152,59,50,290,0,45,179,0,142,197,0,97,129,0,51,289,0,45,178,0,145,194,0,98,128,0,143,196,0,97,129,0,146,193,0,99,127,0,0,342,0,11,206,0,134,206,0,93,137,0,137,202,0,95,132,0,0,342,0,0,206,0,0,342,0,0,206,0,89,251,1,63,163,1,137,201,1,94,132,1,163,81,96,109,64,57
2017-07-25T23:59:59Z,204,337,281,174,332,202,261,164,138,88,0,0,0,0,0,0,2,335,1,203,4,333,2,202,0,0,0,0,0,0,0,0,19,227,89,19,151,58,47,288,0,42,178,0,141,193,0,96,127,0,47,288,0,42,177,0,141,194,0,95,128,0,141,193,0,95,127,0,140,194,0,94,128,0,0,337,0,10,204,1,135,200,0,93,132,0,135,199,0,93,131,0,0,337,0,0,204,0,0,337,0,0,204,0,91,244,1,64,158,1,135,199,0,94,132,0,158,81,96,107,65,57
2017-07-26T23:59:59Z,205,341,289,177,337,204,269,168,136,88,0,0,0,0,0,0,3,338,2,204,4,337,2,203,0,0,0,0,0,0,0,0,21,227,91,22,151,59,49,290,0,44,178,0,145,193,0,97,128,0,49,290,0,43,178,0,145,194,0,97,128,0,144,194,0,97,128,0,142,196,0,96,130,0,0,341,0,11,205,0,138,201,0,96,133,0,137,201,0,95,133,0,0,341,0,0,205,0,0,341,0,0,205,0,95,244,1,68,158,1,142,196,0,98,130,0,162,80,97,110,64,57
2017-07-27T23:59:59Z,209,349,295,180,343,207,274,169,136,87,0,0,0,0,0,0,5,344,3,208,4,341,2,205,0,0,0,0,0,0,0,0,22,232,93,23,154,60,52,295,0,47,179,0,151,195,0,102,128,0,52,295,0,46,179,0,150,197,0,101,130,0,151,195,0,101,128,0,149,197,0,100,130,0,0,349,0,11,209,0,144,203,0,99,135,0,144,202,0,99,134,0,2,347,0,1,208,0,0,347,2,0,208,1,94,251,3,67,162,2,144,202,0,99,134,0,163,85,99,110,66,58
2017-07-28T23:59:59Z,206,345,289,176,340,204,268,165,136,87,0,0,0,0,0,0,2,343,1,205,4,339,2,203,0,0,0,0,0,0,0,0,25,228,90,24,151,58,52,291,0,45,178,0,147,195,0,97,128,0,54,289,0,45,176,0,148,195,0,97,128,0,149,194,0,98,127,0,149,193,0,99,127,0,0,345,0,10,206,0,142,201,0,96,133,0,140,202,0,95,133,0,0,345,0,0,206,0,0,345,0,0,206,0,94,249,1,65,160,1,140,202,0,95,132,0,159,86,98,108,66,58
2017-07-29T23:59:59Z,206,344,289,177,339,205,266,165,136,84,0,0,0,0,0,0,3,341,2,205,4,340,2,204,0,0,0,0,0,0,0,0,23,228,91,22,152,59,53,289,0,46,176,0,147,194,0,98,129,0,51,289,2,44,176,1,147,195,0,97,129,0,147,195,0,98,129,0,145,195,1,96,129,1,0,344,0,10,206,0,140,202,0,95,134,0,140,201,0,95,133,0,0,343,1,0,206,1,0,343,1,0,206,1,91,250,2,63,162,2,140,201,0,95,133,0,162,84,96,111,66,56
2017-07-30T23:59:59Z,209,350,294,179,344,208,274,169,138,88,0,0,0,0,0,0,3,347,2,208,4,342,2,205,0,0,0,0,0,0,0,0,22,236,90,22,157,59,52,296,0,45,180,0,146,201,0,97,133,0,51,297,0,44,180,0,148,200,0,99,131,0,146,202,0,97,133,0,144,203,0,97,134,0,0,350,0,10,209,0,142,206,0,97,136,0,142,205,0,97,135,0,0,350,0,0,209,0,0,350,0,0,209,0,93,255,1,66,164,1,140,207,0,96,137,0,166,85,97,112,66,57
2017-07-31T23:59:59Z,208,349,292,178,344,206,271,169,139,88,0,0,0,0,0,0,0,349,0,208,4,343,2,205,0,0,0,0,0,0,0,0,23,233,91,22,155,59,51,296,0,43,180,0,148,198,0,98,130,0,52,295,0,43,179,0,151,196,0,99,128,0,149,198,0,97,130,0,148,198,0,97,130,0,0,349,0,9,208,0,144,203,0,97,133,0,144,202,0,97,132,0,0,349,0,0,208,0,1,348,0,1,208,0,93,252,3,64,162,2,140,206,0,94,135,0,159,90,98,107,70,57
2017-08-01T23:59:59Z,207,342,285,177,338,206,262,165,132,84,0,0,0,0,0,0,1,341,1,207,4,338,2,205,0,0,0,0,0,0,0,0,22,227,91,21,152,59,47,293,0,42,180,0,144,195,0,96,129,0,50,291,0,42,179,0,142,198,0,95,131,0,142,198,0,94,131,0,143,197,0,95,130,0,0,342,0,9,207,0,134,206,0,91,137,0,136,203,0,93,134,0,0,342,0,0,207,0,0,342,0,0,207,0,93,247,1,63,162,1,139,200,0,95,133,0,155,88,97,106,71,56
2017-08-02T23:59:59Z,209,345,288,179,341,208,265,169,133,87,0,0,0,0,0,0,1,344,1,209,7,334,4,204,0,0,0,0,0,0,0,0,23,230,90,22,155,59,50,291,2,45,179,2,145,197,0,97,131,2,52,292,0,45,180,0,144,199,0,96,133,1,145,198,0,96,132,1,145,198,0,96,132,1,0,345,0,10,209,2,140,203,0,95,136,2,140,202,0,96,136,1,2,343,0,1,208,1,0,345,0,0,209,1,97,246,1,67,161,2,140,199,3,95,133,2,157,89,97,108,70,56
2017-08-03T23:59:59Z,209,347,288,179,343,208,267,169,131,85,0,0,0,0,0,0,2,345,2,209,4,343,4,207,0,0,0,0,0,0,0,0,22,231,92,22,155,61,53,292,0,47,178,1,146,197,0,100,130,2,54,292,0,46,178,0,149,195,0,101,129,1,147,197,0,99,131,1,149,195,0,100,130,1,0,347,0,10,209,2,140,204,0,96,135,2,140,203,0,97,134,1,0,346,1,0,209,2,0,346,1,0,209,2,94,251,1,65,164,2,144,199,0,99,132,1,157,90,98,109,70,57
2017-08-04T23:59:59Z,204,339,280,174,335,203,262,165,136,86,0,0,0,0,0,0,0,339,0,204,4,333,2,201,0,0,0,0,0,0,0,0,21,225,91,20,150,59,53,284,0,45,174,0,146,189,0,97,125,0,53,285,0,44,174,0,143,193,0,95,127,0,142,194,0,94,128,0,143,193,0,96,128,0,0,339,0,9,204,0,136,200,0,93,133,0,135,200,0,93,132,0,0,339,0,0,204,0,0,339,0,0,204,0,92,245,1,64,159,1,137,198,0,93,131,0,151,90,96,104,69,56
2017-08-05T23:59:59Z,202,337,279,173,333,201,260,164,127,81,0,0,0,0,0,0,0,337,0,202,4,333,2,200,0,0,0,0,0,0,0,0,21,224,90,20,148,59,50,285,0,45,172,0,139,194,0,95,126,0,49,287,0,42,174,0,142,192,0,96,125,0,139,195,0,94,127,0,140,194,0,95,127,0,0,337,0,9,202,0,132,202,0,91,132,0,131,202,0,91,132,0,0,337,0,0,202,0,0,337,0,0,202,0,96,239,1,66,154,1,139,194,0,96,127,0,153,86,96,105,65,56
2017-08-06T23:59:59Z,204,339,282,176,335,203,263,166,130,85,0,0,0,0,0,0,3,336,2,203,4,335,2,202,0,0,0,0,0,0,0,0,21,225,91,20,150,60,51,286,0,44,175,0,143,192,0,96,126,0,51,286,1,43,175,1,143,193,0,96,127,0,146,190,0,99,125,0,148,188,0,100,123,0,0,339,0,9,204,0,138,198,0,96,130,0,141,194,0,97,127,0,0,339,0,0,204,0,2,337,0,1,203,0,91,246,1,63,159,1,140,195,0,96,128,0,158,82,97,108,64,57
2017-08-07T23:59:59Z,206,343,285,177,338,204,269,169,133,85,0,0,0,0,0,0,1,342,1,205,4,335,2,202,0,0,0,0,0,0,0,0,22,225,94,21,149,61,53,288,0,46,175,0,148,191,0,99,125,0,55,287,0,46,175,0,147,193,0,98,126,0,146,194,0,98,127,0,147,193,0,98,126,0,0,343,0,9,206,0,145,195,0,99,129,0,144,195,0,98,128,0,0,341,2,0,205,1,1,342,0,1,206,0,97,244,1,68,158,1,138,201,0,95,133,0,155,89,97,106,68,57
2017-08-08T23:59:59Z,204,337,279,175,334,203,265,168,129,84,0,0,0,0,0,0,3,334,2,203,4,333,2,202,0,0,0,0,0,0,0,0,21,224,90,20,150,59,52,283,0,45,174,0,144,189,0,97,125,0,55,281,0,46,172,0,145,189,0,97,125,0,146,188,0,98,124,0,146,188,0,98,124,0,0,337,0,9,204,0,137,197,0,94,131,0,138,195,0,95,130,0,0,337,0,0,204,0,0,337,0,0,204,0,94,241,1,65,158,1,137,196,0,95,128,0,157,83,97,109,63,57
2017-08-09T23:59:59Z,206,342,284,178,340,206,263,166,133,87,0,0,0,0,0,0,1,341,1,205,4,338,2,204,0,0,0,0,0,0,0,0,22,226,93,19,150,61,49,291,0,43,177,0,148,190,0,99,123,0,50,289,2,42,176,1,143,196,0,96,127,0,143,196,0,95,127,0,146,193,0,97,125,0,0,342,0,8,206,0,139,200,0,94,131,0,139,199,0,94,130,0,0,340,2,0,205,1,0,341,1,0,206,1,94,246,1,64,159,1,141,195,2,96,128,1,159,85,96,107,67,57
2017-08-10T23:59:59Z,205,343,285,177,341,205,269,168,140,91,0,0,0,0,0,0,1,342,1,204,4,339,2,203,0,0,0,0,0,0,0,0,23,227,92,20,148,61,51,290,0,43,177,0,147,192,0,97,124,0,55,287,0,44,175,0,148,192,0,97,124,0,148,192,0,97,124,0,147,193,0,97,125,0,0,343,0,8,205,0,143,197,0,98,128,0,143,196,0,98,127,0,0,343,0,0,205,0,0,343,0,0,205,0,91,250,1,62,160,1,139,200,0,93,131,0,155,89,97,105,67,58
2017-08-11T23:59:59Z,205,341,283,177,339,205,268,169,130,85,0,0,0,0,0,0,1,340,1,204,4,333,2,201,0,0,0,0,0,0,0,0,22,227,91,19,150,60,50,289,0,43,176,0,144,193,0,96,125,0,51,289,0,42,176,0,143,195,0,95,127,0,143,195,0,94,127,0,143,195,0,94,127,0,0,341,0,8,205,0,138,200,0,94,130,0,140,197,0,95,128,0,0,341,0,0,205,0,0,341,0,0,205,0,92,247,1,63,159,1,133,204,0,90,132,0,160,85,94,109,64,56
2017-08-12T23:59:59Z,206,341,283,178,339,206,265,168,135,88,0,0,0,0,0,0,1,340,1,205,4,335,2,203,0,0,0,0,0,0,0,0,25,223,92,22,148,60,55,284,0,47,174,0,148,189,0,98,124,0,56,284,0,45,174,0,149,189,0,98,124,0,150,188,0,99,123,0,150,188,0,99,124,0,0,341,0,8,206,0,139,199,0,94,131,0,137,200,0,93,132,0,0,340,1,0,206,1,0,341,0,0,206,0,91,248,1,62,160,1,135,202,0,91,131,0,156,88,94,107,66,56
2017-08-13T23:59:59Z,205,338,280,177,335,204,262,167,137,89,0,0,0,0,0,0,2,336,2,203,4,332,2,202,0,0,0,0,0,0,0,0,24,224,89,21,149,58,51,285,0,44,175,0,143,191,0,96,125,0,55,282,0,46,172,0,145,190,0,97,124,0,144,191,0,97,125,0,145,190,0,97,124,0,0,338,0,8,205,1,136,199,0,94,132,0,137,197,0,94,129,0,0,337,1,0,204,1,0,338,0,0,205,0,93,243,1,64,157,1,137,197,0,95,128,0,152,89,94,105,68,56
2017-08-14T23:59:59Z,208,345,288,180,343,208,267,168,142,93,0,0,0,0,0,0,1,344,1,207,4,341,2,206,0,0,0,0,0,0,0,0,23,225,96,22,150,64,50,292,1,45,179,1,148,192,1,101,126,1,52,292,0,45,178,0,147,195,0,100,129,0,146,196,0,99,129,0,146,196,0,98,129,0,0,345,0,10,208,0,140,202,0,98,133,0,138,202,1,96,133,1,0,345,0,0,208,0,0,345,0,0,208,0,96,247,1,67,160,1,139,202,0,96,132,0,155,90,97,106,71,58